www.pogodaiklimat.ru

Погода и климат >> Архив погоды >> Великобритания >> Lossiemouth


ПОГОДА в Lossiemouth

  • Прогноз погоды в Lossiemouth
  • Монитор погоды в Lossiemouth
  • Климат города

АРХИВ ПОГОДЫ в Lossiemouth

Время (UTC), дата Ветер
(напр.,м/с)
 
Видим.   Явления Облачность Т
(С)
Тd
(С)
f
(%)
Тe
(С)
Тes
(С)
Комфортность P
(гПа)
Po
(гПа)
Тmin
(С)
Tmax
(С)
R
(мм)
R24
(мм)
S
(см)
13 14.10 ЮЗ 4 50 км 6/1 750 м
[Cu med, cong Cs]
+10.7 +6.5 75 +8 +10 1007.6 1006.8
14 14.10 ЮЗ 3 50 км 4/3 750 м
[Cu med, cong Cs]
+12.3 +5.8 64 +11 +12 1008.1 1007.3
15 14.10 ЮЗ 2 50 км 3/3 900 м
[Cu med, cong Cs]
+12.5 +4.5 58 +12 +13 1008.0 1007.1
16 14.10 С 2 50 км 3/3 1050 м
[Sc]
+11.0 +6.4 73 +10 +11 1008.1 1007.2
17 14.10 ЮВ 2 50 км 1/1 1050 м
[Sc Ci fib]
+10.5 +6.1 74 +9 +9 1008.7 1007.8
18 14.10 Ю 2 50 км местами туман поземный 1/1 1050 м
[Sc Ci sp]
+6.3 +4.7 89 +4 +4 1009.3 1008.5 +12.7 0.0
19 14.10 Ю 2 50 км 3/1 1500 м
[Sc Ci fib]
+4.3 +3.0 91 +2 +2 1009.9 1009.1
20 14.10 ЮВ 1 50 км 3/1 1500 м
[Sc Cs]
+4.7 +3.7 93 +3 +3 1010.5 1009.6
21 14.10 ЮВ 4 50 км 9/0
[Cs]
+5.3 +2.8 84 +2 +2 1011.0 1010.2
22 14.10 Ю 2 45 км 9/0
[Cs]
+4.2 +2.6 89 +2 +2 1011.4 1010.5
23 14.10 Ю 2 45 км 9/0
[Ac As Cs]
+4.8 +2.8 87 +3 +3 1011.6 1010.7
00 15.10 ЮВ 3 45 км 8/0
[Ac As Cs]
+5.0 +2.9 86 +1 +1 1011.9 1011.0
01 15.10 Ю 3 40 км 9/0
[Ac As Cs]
+4.7 +2.7 87 +1 +1 1012.1 1011.2
02 15.10 Ю 3 40 км 9/0
[Ac As Cs]
+5.7 +3.1 83 +3 +3 1012.3 1011.5
03 15.10 Ю 4 40 км 10/0
[Ac As Cs]
+5.9 +3.7 86 +2 +2 1012.1 1011.3
04 15.10 В 3 45 км 10/0
[Ac As Cs]
+6.3 +3.5 82 +4 +4 1012.1 1011.3
05 15.10 Ю 2 45 км 10/0
[Ac As Cs]
+5.4 +3.2 86 +3 +3 1012.0 1011.1
06 15.10 ЮВ 3 45 км 10/0
[Ac As Cs]
+6.3 +3.5 82 +4 +4 1012.5 1011.6 +2.7
07 15.10 Ю 3 50 км 8/0
[Ac trans Cs]
+5.8 +3.5 85 +2 +2 1013.0 1012.2
08 15.10 ЮЗ 4 60 км 6/0
[Ac trans Cs]
+6.9 +3.8 81 +3 +3 1013.2 1012.4
09 15.10 ЮЗ 5 50 км 4/0
[Ac lent Cs]
+7.4 +3.9 78 +4 +4 1014.1 1013.2
10 15.10 Ю 5 60 км 3/0
[Ac trans Cs]
+10.9 +4.9 66 +8 +9 1014.1 1013.3
11 15.10 ЮЗ 6 60 км 3/1 1500 м
[Sc Ac trans Ci sp]
+12.1 +5.5 64 +10 +11 1014.0 1013.2
12 15.10 ЮЗ 7 50 км 1/1 900 м
[Cu Sc Ci fib]
+13.2 +5.0 58 +11 +12 1013.9 1013.1
13 15.10 ЮЗ 4 40 км 1/1 900 м
[Cu Sc Ci fib]
+14.1 +5.3 55 +13 +15 1013.9 1013.1
14 15.10 З 4 60 км 3/1 900 м
[Cu hum Ac trans Ci fib]
+14.2 +4.9 54 +13 +14 1013.7 1012.9
15 15.10 З 4 60 км 4/4 1350 м
[Sc Ci fib]
+14.4 +5.1 54 +13 +14 1013.8 1013.0
16 15.10 З 2 60 км 6/6 1500 м
[Sc Ci sp]
+12.7 +6.0 64 +12 +12 1013.7 1012.9
17 15.10 Ю 2 50 км 6/4 1500 м
[Sc Ci fib]
+11.0 +5.8 70 +10 +10 1014.0 1013.2
18 15.10 ЮВ 3 35 км н/о +9.4 +5.6 77 +7 +7 1014.3 1013.4 +14.8
19 15.10 Ю 3 30 км н/о +8.1 +5.8 85 +5 +5 1014.4 1013.5
20 15.10 ЮВ 4 50 км 9/0
[Cs]
+7.7 +4.8 82 +5 +5 1014.0 1013.1
21 15.10 Ю 5 50 км 10/0
[As op]
+7.3 +4.9 85 +3 +3 1014.2 1013.4
22 15.10 Ю 4 50 км 10/0
[As op]
+7.9 +4.7 80 +5 +5 1013.6 1012.7
23 15.10 ЮВ 5 50 км 10/0
[As op]
+8.6 +4.6 76 +5 +5 1013.0 1012.1
00 16.10 Ю 3 50 км 10/0
[As op Cs]
+6.9 +3.5 79 +4 +4 1012.4 1011.5
01 16.10 Ю 5 50 км 6/0
[As op]
+8.3 +3.7 73 +5 +5 1011.6 1010.7
02 16.10 В 3 40 км 10/0
[As trans Cs]
+8.8 +3.7 70 +7 +7 1011.2 1010.4
03 16.10 ЮВ 4 50 км 10/0
[As op]
+9.6 +3.5 66 +7 +7 1010.1 1009.3
04 16.10 ЮВ 3 50 км 10/0
[As op Cs]
+9.2 +3.8 69 +7 +7 1009.0 1008.1
05 16.10 Ю 2 50 км 10/0
[As op]
+8.2 +3.2 71 +7 +7 1008.4 1007.5
06 16.10 Ю 8 40 км 9/0
[Ac trans Ci fib]
+9.9 +4.3 68 +6 +6 1007.4 1006.6 +6.1
07 16.10 Ю 4 40 км 9/1 750 м
[Sc Ac lent Ci fib]
+9.6 +4.6 71 +7 +7 1007.0 1006.2
08 16.10 С 2 40 км 9/1 750 м
[Sc Ac As Ci fib]
+9.7 +4.7 71 +9 +9 1007.0 1006.1
09 16.10 ЮВ 6 40 км 9/1 750 м
[Sc Ac As Ci fib]
+10.4 +5.5 72 +7 +8 1005.7 1004.9
10 16.10 Ю 7
{13}
45 км 9/1 750 м
[Sc Ac As Ci fib]
+12.4 +6.0 65 +10 +10 1004.9 1004.0
11 16.10 Ю 4 45 км 9/1 750 м
[Sc Ac As Ci fib]
+12.7 +5.7 62 +11 +12 1004.2 1003.3
12 16.10 Ю 7 45 км 9/4 1500 м
[Sc Ac As Ci fib]
+14.2 +5.7 57 +12 +13 1003.5 1002.6
13 16.10 ЮЗ 9
{14}
45 км 9/5 960 м
[Sc Ac trans Ci fib]
+14.6 +6.5 58 +12 +12 1003.1 1002.3
14 16.10 ЮЗ 9-14
{15}
45 км 9/8 1110 м
[Sc Ac trans Ci fib]
+14.6 +7.7 63 +12 +12 1003.5 1002.7
15 16.10 ЮЗ 10
{15}
40 км 9/6 750 м
[Cu Sc Ac trans Ci fib]
+14.6 +8.7 68 +12 +12 1003.2 1002.3
16 16.10 ЮЗ 7
{13}
45 км 5/4 800 м
[Cu Sc Ac trans Ci fib]
+14.5 +9.0 70 +13 +13 1003.6 1002.7
17 16.10 ЮЗ 5 50 км 4/3 900 м
[Cu Sc Ac As]
+13.1 +7.8 70 +11 +11 1003.8 1003.0
18 16.10 ЮЗ 7 50 км 1/1 900 м
[Sc Ac As]
+12.8 +6.8 67 +10 +10 1004.0 1003.2 +15.8
19 16.10 ЮЗ 8 40 км 1/1 1200 м
[Sc]
+13.0 +7.1 67 +10 +10 1004.4 1003.5
20 16.10 ЮЗ 5 35 км н/о +11.2 +6.6 73 +9 +9 1005.1 1004.3
21 16.10 ЮЗ 7 40 км 1/1 1200 м
[Sc]
+12.2 +7.3 72 +9 +9 1005.3 1004.4
22 16.10 ЮЗ 6 40 км 1/0
[Ci sp]
+12.1 +7.6 74 +9 +9 1005.4 1004.6
23 16.10 ЮЗ 5 40 км 1/1 1350 м
[Sc Ci sp]
+11.1 +7.6 79 +8 +8 1005.6 1004.7
00 17.10 ЮЗ 6 40 км 5/0
[Ac trans]
+11.0 +8.0 82 +8 +8 1006.2 1005.4
01 17.10 З 4 40 км 4/3 1200 м
[Sc Ac trans]
+8.6 +6.3 85 +6 +6 1007.0 1006.2
02 17.10 ЮЗ 6 40 км 3/3 1350 м
[Sc]
+10.4 +6.2 75 +7 +7 1007.8 1006.9
03 17.10 ЮЗ 4 40 км 6/6 1350 м
[Sc]
+9.3 +5.5 77 +6 +6 1008.3 1007.4
04 17.10 ЮЗ 5 40 км 8/8 1350 м
[Sc]
+9.2 +5.8 79 +6 +6 1009.0 1008.1
05 17.10 ЮЗ 3 40 км 4/4 1350 м
[Sc]
+7.9 +5.1 82 +5 +5 1009.6 1008.8
06 17.10 ЮЗ 2 40 км 8/8 1050 м
[Sc]
+8.6 +6.4 86 +7 +7 1010.6 1009.7 +7.4
07 17.10 ЮЗ 4 20 км 6/6 750 м
[Cu Sc]
+9.1 +6.1 81 +6 +6 1011.7 1010.8
08 17.10 ЮЗ 4 35 км 8/8 750 м
[Cu Sc]
+9.4 +6.7 83 +6 +6 1012.9 1012.0
09 17.10 ЮЗ 4 40 км 3/3 750 м
[Cu Sc]
+10.8 +7.4 80 +9 +9 1014.0 1013.1
10 17.10 ЮЗ 5 40 км 3/3 750 м
[Cu Sc]
+11.2 +5.9 70 +9 +9 1014.9 1014.1
11 17.10 ЮЗ 7 40 км 1/1 900 м
[Cu Sc Ac trans]
+12.1 +5.7 65 +9 +10 1015.3 1014.5
12 17.10 З 7 40 км 1/1 750 м
[Cu Sc]
+12.5 +4.2 57 +10 +11 1016.2 1015.3
13 17.10 З 8
{13}
40 км 1/1 750 м
[Cu Sc]
+12.5 +3.8 55 +10 +10 1016.6 1015.8
14 17.10 З 7 40 км осадки на расстоянии 1/1 750 м
[Cu Sc Ac lent]
+12.2 +4.9 61 +9 +10 1017.1 1016.3
15 17.10 З 9
{13}
40 км 1/1 900 м
[Cu Sc]
+11.9 +3.9 58 +9 +9 1017.8 1017.0
16 17.10 З 8
{13}
40 км 3/3 750 м
[Cu Sc Ac lent]
+11.2 +3.9 61 +8 +8 1018.6 1017.8
17 17.10 З 7 50 км 1/1 750 м
[Cu Sc Ac lent]
+9.9 +4.6 70 +6 +6 1019.6 1018.8
18 17.10 ЮЗ 4 40 км 3/1 1200 м
[Sc Ac lent]
+7.4 +4.1 80 +4 +4 1020.8 1019.9 +12.8
19 17.10 ЮЗ 5 35 км 1/1 1440 м
[Sc]
+6.9 +3.8 81 +3 +3 1021.8 1020.9
20 17.10 З 4 35 км 1/1 1300 м
[Sc]
+6.3 +4.2 86 +2 +2 1022.9 1022.0
21 17.10 ЮЗ 4 35 км 6/6 1230 м
[Sc]
+6.0 +3.7 85 +2 +2 1023.5 1022.7
22 17.10 ЮЗ 4 35 км 9/9 960 м
[Sc]
+6.9 +4.1 82 +4 +4 1023.9 1023.0
23 17.10 ЮЗ 4 35 км 4/4 1300 м
[Sc]
+6.0 +3.5 84 +2 +2 1024.4 1023.6
00 18.10 З 5 35 км 3/3 1300 м
[Sc]
+5.2 +3.1 86 +1 +1 1024.6 1023.8
01 18.10 ЮЗ 4 35 км 3/3 1260 м
[Sc]
+4.3 +2.0 85 0 0 1024.8 1023.9
02 18.10 ЮЗ 4 35 км 3/3 1440 м
[Sc]
+4.3 +1.7 83 0 0 1025.3 1024.4
03 18.10 З 5 35 км 1/1 1350 м
[Sc Ci fib]
+6.1 +3.2 82 +2 +2 1025.4 1024.6
04 18.10 ЮЗ 4 30 км н/о +6.1 +3.4 83 +3 +3 1025.6 1024.7
05 18.10 ЮЗ 4 30 км 8/8 1320 м
[Sc]
+6.0 +2.9 80 +2 +2 1026.0 1025.1
06 18.10 ЮЗ 3 35 км 5/4 1350 м
[Sc Ac trans Ci fib]
+4.2 +2.3 87 +1 +1 1026.3 1025.4 +3.0
07 18.10 ЮЗ 5 30 км 9/4 900 м
[Sc Ac As Ci]
+6.0 +3.3 83 +2 +2 1026.6 1025.7
08 18.10 ЮЗ 5 30 км 9/3 900 м
[Sc Ac As Ci]
+7.5 +4.0 78 +4 +4 1026.7 1025.8
09 18.10 ЮЗ 3 30 км 9/4 900 м
[Sc Ac As Ci]
+9.3 +4.3 71 +7 +7 1027.0 1026.1
10 18.10 ЮЗ 5 30 км 9/4 750 м
[Cu Sc Ac As Ci sp]
+11.4 +4.8 64 +9 +9 1027.1 1026.2
11 18.10 ЮЗ 4 35 км 9/4 900 м
[Cu Sc Ac lent Ci sp]
+11.0 +5.1 67 +9 +9 1026.7 1025.8
12 18.10 ЮЗ 4 40 км 9/8 1200 м
[Sc As trans]
+11.2 +5.6 68 +9 +9 1026.6 1025.8
13 18.10 ЮЗ 4 35 км 9/9 960 м
[Cu Sc Ac As Ci sp]
+11.4 +5.4 67 +9 +10 1026.4 1025.5
14 18.10 Ю 3 30 км 9/9 960 м
[Cu Sc Ac As Ci sp]
+11.5 +5.5 67 +10 +10 1025.9 1025.0
15 18.10 Ю 2 30 км 9/5 900 м
[Cu Sc Ac lent Ci sp]
+11.2 +5.5 68 +10 +10 1025.1 1024.2
16 18.10 Ю 2 30 км 9/3 900 м
[Cu Sc Ac lent Cs]
+10.3 +5.0 70 +9 +9 1025.2 1024.3
17 18.10 Ю 3 30 км 9/1 1080 м
[Sc Ac lent Cs]
+9.1 +4.6 73 +7 +7 1024.9 1024.0
18 18.10 Ю 3 30 км 9/3 1170 м
[Sc Ac trans Cs]
+8.1 +4.4 77 +5 +5 1024.6 1023.8 +11.9
19 18.10 ЮЗ 3 50 км 6/5 1140 м
[Sc Ac trans]
+8.0 +4.5 79 +6 +6 1024.2 1023.4
20 18.10 Ю 2 50 км 9/1 1200 м
[Sc Ac trans Cs]
+6.3 +3.4 82 +4 +4 1024.1 1023.3
21 18.10 Ю 2 40 км 10/1 1200 м
[Sc Ac As]
+7.8 +4.2 78 +6 +6 1023.7 1022.8
22 18.10 ЮВ 4 50 км 10/3 1140 м
[Sc Ac As Cs]
+7.6 +4.2 79 +4 +4 1023.1 1022.3
23 18.10 Ю 4 50 км 10/1 1140 м
[Sc Ac As Cs]
+7.3 +4.2 81 +4 +4 1022.4 1021.5
00 19.10 ЮВ 2 50 км 10/1 1140 м
[Sc Ac As Cs]
+7.0 +3.9 81 +5 +5 1021.4 1020.5
01 19.10 Ю 3 50 км 10/4 1200 м
[Sc Ac As Cs]
+7.0 +3.7 79 +4 +4 1020.7 1019.8
02 19.10 Ю 4 50 км 10/4 1200 м
[Sc Ac As Cs]
+6.7 +3.9 82 +3 +3 1020.0 1019.1
03 19.10 Ю 6 35 км 10/1 1200 м
[Sc Ac As]
+9.2 +3.6 68 +6 +6 1018.9 1018.1
04 19.10 Ю 5 35 км 10/1 1200 м
[Sc Ac trans]
+8.9 +3.4 68 +6 +6 1018.3 1017.4
05 19.10 ЮВ 3 50 км 10/1 1200 м
[Sc Ac As Cs]
+9.0 +3.6 69 +7 +7 1017.4 1016.5
06 19.10 Ю 5 50 км 10/4 1500 м
[Sc Ac As Cs]
+9.1 +3.9 70 +6 +6 1017.0 1016.1 +6.3
07 19.10 ЮЗ 5 40 км в посл. час ливневой дождь 9/1 1500 м
[Sc Ac As Cs]
+9.6 +4.1 69 +7 +7 1016.8 1015.9
08 19.10 ЮЗ 8 35 км н/о +10.0 +4.2 67 +6 +6 1016.0 1015.1
09 19.10 ЮЗ 6 18 км слабый дождь {ливн. осадки} 9/6 750 м
[Sc Ac As]
+10.4 +6.3 76 +7 +7 1016.4 1015.5
10 19.10 Ю 3 50 км в посл. час дождь 8/6 1140 м
[Sc Ac trans Ci fib]
+9.5 +7.8 89 +7 +7 1016.3 1015.4
11 19.10 ЮЗ 5 50 км 8/6 1140 м
[Sc Ac trans]
+11.7 +8.0 78 +9 +10 1016.6 1015.8
12 19.10 З 5 5000 м слабый дождь {ливн. осадки} 10/10 630 м
[Sc]
+11.5 +8.7 83 +9 +9 1017.2 1016.3 0.8
13 19.10 З 7 20 км в посл. час дождь {морось} 8/8 450 м
[Sc]
+10.8 +9.7 93 +7 +7 1018.3 1017.4
14 19.10 З 4 30 км 5/4 900 м
[Cu Sc Ac trans]
+12.7 +8.3 75 +11 +12 1018.9 1018.0
15 19.10 З 7 40 км {дождь} 5/5 750 м
[Cu Sc]
+12.8 +7.0 68 +10 +10 1019.4 1018.5
16 19.10 З 7 40 км 4/4 870 м
[Sc Ac trans]
+11.2 +7.2 76 +8 +8 1020.3 1019.5
17 19.10 З 4 40 км 6/4 1110 м
[Sc Ac trans Ci fib]
+9.8 +6.5 80 +7 +7 1021.1 1020.2
18 19.10 З 3 35 км {дождь} 8/1 1500 м
[Sc Cc]
+9.1 +5.8 80 +7 +7 1022.1 1021.2 +13.0 2
19 19.10 ЮЗ 2 30 км 9/1 1500 м
[Sc Cs]
+8.6 +5.1 79 +7 +7 1022.3 1021.4
20 19.10 З 2 30 км 10/0
[Ac As Cs]
+7.4 +5.3 87 +6 +6 1023.0 1022.1
21 19.10 ЮЗ 2 30 км 9/0
[Ac As Cs]
+7.2 +5.1 86 +6 +6 1023.4 1022.5
22 19.10 ЮЗ 3 30 км 9/0
[Ac As Cs]
+6.9 +5.2 89 +4 +4 1023.4 1022.5
23 19.10 ЮЗ 4 30 км 9/0
[Ac As Cs]
+7.1 +4.5 84 +4 +4 1023.8 1022.9
00 20.10 Ю 3 30 км 8/0
[Ac As Cs]
+5.7 +2.5 80 +3 +3 1023.2 1022.3
01 20.10 Ю 2 30 км 6/0
[Ac As Cs]
+6.0 +4.0 87 +4 +4 1023.7 1022.8
02 20.10 Ю 3 30 км 6/1 900 м
[Sc Ac As Cs]
+5.6 +3.8 88 +3 +3 1022.7 1021.8
03 20.10 ЮВ 2 30 км 4/0
[Ac As Cs]
+6.3 +3.5 82 +4 +4 1022.0 1021.1
04 20.10 В 2 30 км 6/1 900 м
[Sc Ac As Cs]
+6.2 +3.6 83 +4 +4 1021.8 1020.9
05 20.10 В 3 30 км 9/1 900 м
[Sc Ac As Cs]
+7.2 +4.5 83 +4 +4 1021.0 1020.2
06 20.10 ЮВ 4 35 км 9/1 720 м
[Sc Ac As]
+8.2 +6.3 88 +5 +5 1020.2 1019.4 +4.2
07 20.10 Ю 3 50 км осадки на расстоянии 9/1 450 м
[Sc Ac lent Ci fib]
+8.9 +7.1 88 +6 +6 1019.4 1018.6
08 20.10 Ю 3 50 км 9/1 540 м
[Sc Ac lent]
+10.4 +8.5 88 +9 +9 1019.2 1018.3
09 20.10 ЮЗ 4 60 км 8/1 600 м
[Sc Ac cast Ci sp]
+13.5 +11.1 85 +12 +12 1019.5 1018.6
10 20.10 З 9 >70 км 8/4 900 м
[Sc Ac lent Ci sp]
+15.9 +11.2 74 +14 +14 1019.7 1018.9
11 20.10 ЮЗ 9 70 км осадки на расстоянии 8/6 1200 м
[Cu Sc Ac lent Ci fib]
+16.9 +11.2 69 +15 +16 1019.7 1018.9
12 20.10 ЮЗ 11
{15}
70 км 4/3 900 м
[Cu Sc Ac lent]
+17.9 +11.8 67 +17 +17 1019.3 1018.4
13 20.10 ЮЗ 7
{14}
60 км 6/5 900 м
[Sc Ac lent]
+18.8 +12.3 66 +19 +19 1019.6 1018.8
14 20.10 З 7 60 км 1/1 900 м
[Cu Sc Ac lent Ci fib]
+18.5 +12.5 68 +18 +19 1019.0 1018.2
15 20.10 З 10
{14}
70 км 3/3 900 м
[Sc Ac lent Ci fib]
+17.2 +11.8 71 +16 +16 1018.6 1017.8
16 20.10 ЮЗ 11
{14}
50 км 8/8 1050 м
[Sc Ac lent]
+17.5 +12.0 70 +16 +16 1018.9 1018.1
17 20.10 ЮЗ 7 40 км 6/5 1050 м
[Sc Ac lent]
+16.8 +12.0 73 +16 +16 1019.0 1018.2
18 20.10 ЮЗ 7 50 км 9/8 1200 м
[Sc Ac lent]
+16.8 +12.2 74 +16 +16 1019.2 1018.4 +19.3
19 20.10 ЮЗ 6 40 км 9/9 1200 м
[Sc]
+16.4 +12.4 77 +15 +15 1019.8 1018.9
20 20.10 ЮЗ 5 40 км 9/9 1200 м
[Sc]
+16.5 +12.4 77 +16 +16 1019.8 1018.9
21 20.10 ЮЗ 7 40 км 9/9 1260 м
[Sc]
+16.3 +12.5 78 +15 +15 1019.1 1018.3
22 20.10 ЮЗ 6 40 км 8/8 1260 м
[Sc]
+15.6 +12.2 80 +14 +14 1018.9 1018.0
23 20.10 ЮЗ 4 40 км 6/6 1200 м
[Sc]
+15.4 +12.5 83 +14 +14 1018.5 1017.7
00 21.10 ЮЗ 7 40 км 4/4 1260 м
[Sc]
+15.5 +12.5 82 +14 +14 1017.8 1017.0
01 21.10 ЮЗ 3 40 км 4/3 1500 м
[Sc Ci fib]
+14.4 +11.9 85 +13 +13 1017.5 1016.7
02 21.10 ЮЗ 4 40 км 6/3 1140 м
[Sc Ci fib]
+14.9 +12.1 83 +14 +14 1016.9 1016.0
03 21.10 СЗ 1 35 км 9/4 1260 м
[Sc Ac trans]
+12.9 +11.2 89 +13 +13 1016.8 1016.0
04 21.10 СЗ 7 3000 м дождь {морось} 10/10 150 м
[Sc]
+11.9 +11.4 97 +9 +9 1017.3 1016.4
05 21.10 СЗ 5 4500 м дождь {морось} 10/10 400 м
[Sc]
+11.4 +11.0 97 +9 +9 1017.3 1016.4
06 21.10 СЗ 7 3400 м дождь {морось} 10/10 150 м
[Sc]
+10.2 +9.5 95 +6 +6 1018.1 1017.2 +10.2 3
07 21.10 СЗ 5 8000 м дождь {морось} 10/10 150 м
[Sc]
+9.7 +9.2 97 +6 +6 1018.5 1017.6
08 21.10 З 3 12 км слабый дождь {морось} 10/10 240 м
[Sc]
+9.4 +8.9 97 +7 +7 1019.5 1018.6
09 21.10 З 6 30 км в посл. час дождь {морось} 10/10 300 м
[Cu Sc]
+10.1 +9.2 94 +7 +7 1019.6 1018.7
10 21.10 ЮЗ 6 40 км в посл. час дождь 10/1 450 м
[Cu hum As op]
+10.1 +8.5 90 +7 +7 1018.9 1018.0
11 21.10 ЮЗ 4 45 км 9/1 750 м
[Sc Ac As]
+9.9 +8.0 88 +7 +8 1019.0 1018.2

 

Местоположение метеостанции Lossiemouth (Великобритания): широта 57.72 долгота -3.32 высота над уровнем моря 6 м.

В архиве по умолчанию представлена погода в Lossiemouth за последнюю неделю. Архивные данные за месяц целиком и за предыдущие месяцы, начиная с января 2011 года, Вы можете получить, выбрав интересующий диапазон дат из раскрывающегося списка и нажав кнопку "Ввод!".


*Определитесь, кто Вы:
робот инопланетянин человек

Внимание! Время в таблицах - всемирное. Для получения местного времени необходимо прибавить поправку, которая в Lossiemouth равна 0 ч.

Смотрите также архив погоды в соседних городах и на ближайших метеорологических станциях:

Погода в Kinloss (Великобритания) (17 км)
Погода в Tain Range (Великобритания) (40 км)
Погода в Aviemore (Великобритания) (65 км)
Погода в Cairngorm (Великобритания) (69 км)
Погода в Aboyne (Великобритания) (77 км)
Погода в Wick (Великобритания) (82 км)
Погода в Aberdeen (Великобритания) (88 км)
Погода в Altnaharra (Великобритания) (90 км)
Погода в Loch Glascarnoch (Великобритания) (93 км)
Погода в Cairnwell (Великобритания) (94 км)

Пояснения к столбцам:

Ветер - указаны скорость ветра в м/с - средняя за 10 мин, порывы в срок и между сроками (в фигурных скобках) и направление, откуда дует ветер: С - северный, СВ - северо-восточный, В - восточный, ЮВ - юго-восточный, Ю - южный, ЮЗ - юго-западный, З - западный, СЗ - северо-западный.
Видимость - горизонтальная дальность видимости в метрах или километрах. При видимости от 1 до 10 км при отсутствии осадков обычно наблюдается дымка, при ухудшении видимости до 1 км и менее - туман. В сухую погоду видимость может ухудшаться дымом, пылью или мглою.
Явления - указаны атмосферные явления, наблюдавшиеся в срок или в последний час перед сроком; фигурными скобками обозначены явления, наблюдавшиеся между сроками (за 1-3 часа до срока); квадратными скобками обозначены град или гололедные отложения с указанием их диаметра в мм.
Облачность - указаны через наклонную черту общая и нижняя облачность в баллах и высота нижней границы облаков в метрах; квадратными скобками обозначены формы облаков: Ci - перистые, Cs - перисто-слоистые, Cc - перисто-кучевые, Ac - высококучевые, As - высокослоистые, Sc - слоисто-кучевые, Ns - слоисто-дождевые, Cu - кучевые, Cb - кучево-дождевые. Подробнее классификацию облаков см. в Атласе облаков (PDF).
T - Температура воздуха - температура, измеренная на высоте 2 м над землей.
Td - Температура точки росы - температура, при понижении до которой содержащийся в воздухе водяной пар достигнет насыщения.
f - Относительная влажность воздуха - влажноcть воздуха, измеренная на высоте 2 м над землей.
Te - Эффективная температура - температура, которую ощущает одетый по сезону человек в тени. Характеристика душности погоды. При расчете учитывается влияние влажности воздуха и скорости ветра на теплоощущения человека.
Tes - Эффективная температура на солнце - температура, которую ощущает человек, с поправкой на солнечный нагрев. Характеристика знойности погоды. Зависит от высоты солнца над горизонтом, облачности и скорости ветра. Ночью, в пасмурную погоду, а также при ветре 12 м/с и более поправка равна нулю.
P - Атмосферное давление - приведенное к уровню моря атмосферное давление.
Po - Атмосферное давление - измеренное на уровне метеостанции атмосферное давление.
Tmin - Минимальная температура - минимум температуры воздуха на высоте 2 м над землей.
Tmax - Максимальная температура - максимум температуры воздуха на высоте 2 м над землей.
R - Количество осадков - Количество выпавших осадков за период времени, мм. При наведении курсора мыши на число - период времени, за который выпало указанное количество осадков.
R24 - Количество осадков - Количество выпавших осадков за 24 часа, мм.
S - Снежный покров - Высота снежного покрова, см. При наведении курсора мыши на число - состояние снежного покрова и степень покрытия местности в баллах.